Weather in Sosnovka

Russia / Volgograd Oblast     50°47′51″N   44°16′33″E
temp.,
°C
wind,
m/s
gust,
m/s
humid.,
%
clouds,
%
prec.,
mm/h
press.,
hPa
HPBL,
m
23 september, thu
thu2300:00+8w23875 0.0 101436
03:00+7wnw11897 0.0 101510
06:00+6nw008779 0.0 101510
09:00+11nne1165100 0.0 1015274
12:00+14ene3249100 0.0 10141097
15:00+10ene4476100 0.1 1014288
18:00+9ene3490100 0.4 1013165
21:00+9ene1190100 0.6 101382
24 september, fri
fri2400:00+8w11926 0.1 101319
03:00+7n1194100 0.1 101210
06:00+7n119297 0.0 101210
09:00+12nw1167100 0.0 1012339
12:00+15wnw2346100 0.0 10101100
15:00+16wsw2341100 0.0 10091581
18:00+14sw2351100 0.0 100956
21:00+12wsw2359100 0.0 100985
25 september, sat
sat2500:00+12ssw3562100 0.0 1008159
03:00+11ssw2469100 0.0 1007129
06:00+10ssw3673100 0.0 1007187
09:00+11ssw3559100 0.0 1007539
12:00+9sse3685100 1.6 1007381
15:00+10sw2484100 2.6 1007461
18:00+9nw228798 0.0 100711
21:00+8nw0091100 0.3 100810
26 september, sun
sun2600:00+7w2293100 0.1 100912
03:00+7wnw349590 0.1 101072
06:00+6wnw349546 0.0 101080
09:00+10w467878 0.0 1011468
12:00+14w565753 0.2 10101402
15:00+14w565292 0.8 10091349
18:00+10w477999 0.3 1009405
21:00+9wnw3584100 0.3 1009314
27 september, mon
mon2700:00+9nw3589100 0.1 1009200
03:00+9nne369099 0.3 1010185
06:00+9n388799 0.1 1011331
09:00+10nw3784100 0.1 1013398
12:00+14nnw566189 0.2 10141298
15:00+14n565970 0.8 10151200
18:00+10n367759 0.1 1017109
21:00+11n367960 0.2 1018228